sat.trackr.live / text

‹ back to catalog

STARLINK-11505 [DTC]

NORAD 62469 · 2024-254H

PAYLOAD ACTIVE UNKNOWN

§ Identity

Operator
Country
US
Launch date
2024-12-31
Launch site
AFETR
Launch vehicle
Mass (kg)
RCS (m²)

Purposes: comms

External: N2YO · Heavens-Above · Gunter

§ Orbital elements

Epoch: 2026-05-24T10:09:21.309120Z

Period
91.67 min
Inclination
43.0015°
Eccentricity
0.0001746
Mean motion
15.70866304 rev/d
Perigee alt
355.2 km
Apogee alt
357.6 km
Semi-major
6,734.6 km
B*
8.4749e-4
RAAN
126.3500°
Arg perigee
252.9736°
Mean anomaly
107.0941°
Rev number
8,130

§ Raw data

STARLINK-11505 [DTC]1 62469U 24254H   26144.42316330  .00109867  00000+0  84749-3 0  99982 62469  43.0015 126.3500 0001746 252.9736 107.0941 15.70866304 81305

JSON: /api/v1/satellites/62469 · /tle

For live sub-satellite position, see the globe view (requires WebGL).

§ Visibility from observer

Set your observer location to see the next 7 days of passes ≥ 10°. The values pass through the URL so the page stays shareable.

No JS? Fill the form by hand. The geolocation button needs JavaScript.